Location: San Antonio
(29.4240°N, 98.4930°W)
Time: 22:23:04
(UTC-05:00)

A-11 Canister half - Pass Details

Date: 17 July 2024
Orbit: 1514 x 1685 km, 47.2° (Epoch: 17 July)

Event Time Altitude Azimuth Distance (km) Brightness Sun altitude
Rises 20:56:28 0° 298° (WNW) 4,928 14.8 -5.2°
Reaches altitude 10° 21:00:15 10° 288° (WNW) 3,924 12.9 -5.9°
Maximum altitude 21:08:13 28° 234° (SW) 2,736 10.6 -7.4°
Drops below altitude 10° 21:16:02 10° 181° (S) 3,821 10.8 -8.9°
Sets 21:19:42 0° 169° (S) 4,777 11.2 -9.6°
